Location: Newark
(39.6867°N, 100.6772°W)
Time: 16:24:32
(UTC+00:00)

Vanguard 1 - Pass Details

Date: 14 October 2019
Orbit: 652 x 3831 km, 34.2° (Epoch: 11 November)

Event Time Altitude Azimuth Distance (km) Brightness Sun altitude
Rises 05:26:56 0° 266° (W) 5,466 14.1 -55.5°
Reaches altitude 10° 05:29:53 10° 264° (W) 4,797 13.6 -55.7°
Enters shadow 05:33:53 26° 261° (W) 4,025 13.1 -56.0°
Maximum altitude 05:44:59 74° 183° (S) 3,326 - -56.9°
Exits shadow 06:08:02 11° 105° (ESE) 6,891 14.2 -58.0°
Drops below altitude 10° 06:08:15 10° 105° (ESE) 6,933 14.2 -58.0°
Sets 06:13:36 0° 104° (ESE) 7,898 14.6 -58.2°
